Location: Isles
(48.9125°N, 2.8272°E)
Time: 11:54:03
(UTC+00:00)

CZ-4B R/B - Pass Details

Date: 03 February 2023
Orbit: 809 x 881 km, 99.0° (Epoch: 29 March)

Event Time Altitude Azimuth Distance (km) Brightness Sun altitude
Rises 17:49:28 0° 139° (SE) 3,339 6.0 -10.2°
Reaches altitude 10° 17:51:54 10° 132° (SE) 2,419 5.3 -10.6°
Maximum altitude 17:56:51 40° 64° (ENE) 1,211 3.6 -11.4°
Drops below altitude 10° 18:01:56 10° 357° (N) 2,476 5.6 -12.2°
Sets 18:04:26 0° 350° (N) 3,428 6.4 -12.6°
